{"data":{"norad_id":63799,"epoch":"2026-05-24T22:25:53.478336Z","epoch_age_seconds":80831,"freshness":"FRESH","line1":"1 63799U 25091AA  26144.93464674  .00011164  00000+0  41442-3 0  9991","line2":"2 63799  43.0031 341.8661 0001736 273.1471  86.9182 15.27594033 60670","mean_motion":15.27594033,"eccentricity":0.0001736,"inclination_deg":43.0031,"raan_deg":341.8661,"arg_perigee_deg":273.1471,"mean_anomaly_deg":86.9182,"bstar":0.00041442,"rev_number":6067,"period_min":94.265882747134,"perigee_km":481.8159818993,"apogee_km":484.19817112267,"semimajor_km":6861.144076511,"source":"CELESTRAK","updated_at":"2026-05-25T13:38:20.138076Z"}}